Tracking 19905 objects as of 18-Oct-2019
HD Live streaming from Space Station
objects crossing your sky now

COSMOS 1275 DEB

Track COSMOS 1275 DEB now!
10-day predictions


NORAD ID: 14627
Int'l Code: 1981-053JT
Perigee: 874.8 km
Apogee: 934.1 km
Inclination: 82.8 °
Period: 102.9 minutes
Semi major axis: 7275 km
RCS: 0.0099 m2 (small)
Launch date: June 4, 1981
Source: Commonwealth of Independent States (former USSR) (CIS)
Launch site: PLESETSK MISSILE AND SPACE COMPLEX (PKMTR)

Note: This is SATELLITE DEBRIS
aabbcc
Your satellite tracking list
Your tracking list is empty




NASA's NSSDC Master Catalog

Two Line Element Set (TLE):
1 14627U 81053JQ  19289.18395119  .00000413  00000-0  27353-3 0  9994
2 14627  82.7863 176.5631 0040792 251.6639 236.4827 13.98989793820489
Source of the keplerian elements: AFSPC